TimeEST,TemperatureF,Dew PointF,Humidity,Sea Level PressureIn,VisibilityMPH,Wind Direction,Wind SpeedMPH,Gust SpeedMPH,PrecipitationIn,Events,Conditions,WindDirDegrees,DateUTC
12:00 AM,82.4,75.2,79,29.95,6.2,NW,4.6,-,N/A,,Partly Cloudy,320,2013-07-25 05:00:00
1:00 AM,83,77,77,29.95,9,SSW,2.3,,,,Haze,210,2013-07-25 06:00:00
1:00 AM,82.4,77.0,84,29.95,6.2,SSW,2.3,-,N/A,,Partly Cloudy,210,2013-07-25 06:00:00
2:00 AM,82.4,75.2,79,29.92,6.2,WSW,3.5,-,N/A,,Partly Cloudy,250,2013-07-25 07:00:00
3:00 AM,80.6,75.2,84,29.92,6.2,North,2.3,-,N/A,,Partly Cloudy,10,2013-07-25 08:00:00
4:00 AM,81,75,77,29.93,9,WNW,3.5,,,,Haze,290,2013-07-25 09:00:00
4:00 AM,80.6,75.2,84,29.92,6.2,WNW,3.5,-,N/A,,Partly Cloudy,290,2013-07-25 09:00:00
5:00 AM,80.6,75.2,84,29.92,6.2,NW,3.5,-,N/A,,Partly Cloudy,310,2013-07-25 10:00:00
6:00 AM,80.6,71.6,74,29.95,6.2,NNW,4.6,-,N/A,,Partly Cloudy,330,2013-07-25 11:00:00
7:00 AM,81,75,76,29.97,7,NW,3.5,,,,Haze,320,2013-07-25 12:00:00
7:00 AM,80.6,75.2,84,29.95,6.2,NW,3.5,-,N/A,,Scattered Clouds,320,2013-07-25 12:00:00
8:00 AM,84.2,73.4,70,29.98,6.2,NW,4.6,-,N/A,,Partly Cloudy,320,2013-07-25 13:00:00
9:00 AM,87.8,75.2,66,29.98,6.2,East,5.8,-,N/A,,Partly Cloudy,100,2013-07-25 14:00:00
10:00 AM,87,78,68,29.98,7,SE,21.9,,,,Haze,130,2013-07-25 15:00:00
10:00 AM,87.8,78.8,75,29.98,6.2,SE,21.9,-,N/A,,Partly Cloudy,130,2013-07-25 15:00:00
11:00 AM,87.8,77.0,70,29.98,6.2,SE,24.2,-,N/A,,Partly Cloudy,140,2013-07-25 16:00:00
12:00 PM,87.8,77.0,70,29.95,6.2,SE,25.3,-,N/A,,Partly Cloudy,140,2013-07-25 17:00:00
1:00 PM,89.6,78.8,70,29.95,6.2,SE,25.3,-,N/A,,Partly Cloudy,140,2013-07-25 18:00:00
2:00 PM,89.6,77.0,66,29.95,6.2,SE,25.3,-,N/A,,Partly Cloudy,140,2013-07-25 19:00:00
3:00 PM,89.6,77.0,66,29.92,6.2,SE,25.3,-,N/A,,Partly Cloudy,140,2013-07-25 20:00:00
4:00 PM,89,77,60,29.94,7,SE,23.0,,,,Haze,140,2013-07-25 21:00:00
4:00 PM,89.6,77.0,66,29.92,6.2,SE,23.0,-,N/A,,Partly Cloudy,140,2013-07-25 21:00:00
5:00 PM,87.8,77.0,70,29.95,6.2,SE,23.0,-,N/A,,Partly Cloudy,140,2013-07-25 22:00:00
6:00 PM,86.0,77.0,74,29.95,6.2,SE,18.4,-,N/A,,Partly Cloudy,140,2013-07-25 23:00:00
7:00 PM,87,75,60,30.00,12,SE,15.0,,,,Haze,130,2013-07-26 00:00:00
7:00 PM,87.8,75.2,66,29.98,6.2,SE,15.0,-,N/A,,Scattered Clouds,130,2013-07-26 00:00:00
8:00 PM,86.0,71.6,62,30.01,6.2,ESE,11.5,-,N/A,,Partly Cloudy,120,2013-07-26 01:00:00
9:00 PM,86.0,77.0,74,30.01,6.2,NNE,8.1,-,N/A,,Partly Cloudy,20,2013-07-26 02:00:00
10:00 PM,85,75,66,30.04,12,SW,3.5,,,,Haze,220,2013-07-26 03:00:00
10:00 PM,84.2,75.2,74,30.04,6.2,SW,3.5,-,N/A,,Partly Cloudy,220,2013-07-26 03:00:00
11:00 PM,84.2,77.0,79,30.04,6.2,SW,4.6,-,N/A,,Partly Cloudy,230,2013-07-26 04:00:00